RYR33QC LFMP-EBCI

Flight info

Callsign RYR33QC
Flight time 1h 23m
Altitude 34000
Route KELAM DCT BRUSC A27 MOU B373 TRO G40 VATRI B3 REM DCT CIV
Aircraft B738/M-SDE2E3FGHIRWXY/LB1

Departure

Time 2026-04-24 14:46
Airport Perpignan-Rivesaltes (Llabanère) Airport (LFMP)

Arrival

Time 2026-04-24 16:10
Airport Brussels South Charleroi Airport (EBCI)
Time Latitude Longitude Altitude Speed Heading
2026-04-24 14:37 42.74027 2.86864 149 ft 0 kts 39°
2026-04-24 14:42 42.74030 2.86867 149 ft 1 kts 47°
2026-04-24 14:42 42.74025 2.86878 149 ft 3 kts 160°
2026-04-24 14:43 42.74005 2.86876 149 ft 3 kts 193°
2026-04-24 14:43 42.73965 2.86872 150 ft 4 kts 147°
2026-04-24 14:43 42.73962 2.86955 148 ft 14 kts 83°
2026-04-24 14:43 42.74021 2.87087 145 ft 12 kts
2026-04-24 14:44 42.74115 2.87019 144 ft 19 kts 332°
2026-04-24 14:44 42.74269 2.86866 144 ft 35 kts 332°
2026-04-24 14:44 42.74500 2.86677 146 ft 38 kts 327°
2026-04-24 14:44 42.74720 2.86490 149 ft 35 kts 323°
2026-04-24 14:45 42.74929 2.86330 148 ft 32 kts 336°
2026-04-24 14:45 42.75126 2.86196 145 ft 30 kts
2026-04-24 14:45 42.75159 2.86395 144 ft 24 kts 139°
2026-04-24 14:45 42.75011 2.86517 146 ft 32 kts 149°
2026-04-24 14:46 42.74608 2.86850 140 ft 103 kts 147°
2026-04-24 14:46 42.73818 2.87519 171 ft 157 kts 146°
2026-04-24 14:46 42.72867 2.88335 726 ft 165 kts 143°
2026-04-24 14:46 42.71983 2.89414 1154 ft 179 kts 122°
2026-04-24 14:47 42.71640 2.91087 1445 ft 196 kts 89°
2026-04-24 14:47 42.71983 2.92921 1770 ft 215 kts 68°
2026-04-24 14:47 42.72944 2.94637 2040 ft 241 kts 38°
2026-04-24 14:47 42.74550 2.95395 2441 ft 260 kts
2026-04-24 14:48 42.76320 2.94724 2854 ft 274 kts 327°
2026-04-24 14:48 42.77760 2.93053 3577 ft 274 kts 314°
2026-04-24 14:48 42.79075 2.91204 4399 ft 273 kts 315°
2026-04-24 14:48 42.80420 2.89418 5206 ft 273 kts 317°
2026-04-24 14:49 42.81816 2.87710 6053 ft 271 kts 321°
2026-04-24 14:49 42.83369 2.86325 6838 ft 271 kts 338°
2026-04-24 14:49 42.85207 2.85831 7584 ft 273 kts 359°
2026-04-24 14:49 42.87103 2.85902 8359 ft 276 kts
2026-04-24 14:50 42.89028 2.86029 9138 ft 278 kts
2026-04-24 14:50 42.90957 2.86126 9917 ft 280 kts
2026-04-24 14:50 42.92907 2.86196 10571 ft 287 kts
2026-04-24 14:50 42.94955 2.86254 11006 ft 303 kts 360°
2026-04-24 14:51 42.97088 2.86309 11418 ft 318 kts
2026-04-24 14:51 42.99385 2.86369 11837 ft 334 kts
2026-04-24 14:51 43.01701 2.86431 12606 ft 337 kts
2026-04-24 14:51 43.04043 2.86497 13364 ft 341 kts
2026-04-24 14:52 43.06435 2.86563 14097 ft 345 kts 360°
2026-04-24 14:52 43.08839 2.86630 14779 ft 350 kts 360°
2026-04-24 14:52 43.11254 2.86696 15544 ft 354 kts
2026-04-24 14:52 43.13723 2.86764 16253 ft 359 kts
2026-04-24 14:53 43.16230 2.86885 16981 ft 363 kts
2026-04-24 14:53 43.18743 2.87243 17644 ft 369 kts
2026-04-24 14:53 43.21288 2.87817 18319 ft 373 kts
2026-04-24 14:53 43.23822 2.88494 19046 ft 376 kts 10°
2026-04-24 14:54 43.26400 2.89218 19757 ft 378 kts 10°
2026-04-24 14:54 43.28976 2.89939 20442 ft 381 kts 10°
2026-04-24 14:54 43.31571 2.90655 21090 ft 384 kts 10°
2026-04-24 14:54 43.34198 2.91372 21750 ft 387 kts 10°
2026-04-24 14:55 43.36840 2.92089 22361 ft 390 kts 10°
2026-04-24 14:55 43.39496 2.92806 22943 ft 393 kts 10°
2026-04-24 14:55 43.42199 2.93534 23527 ft 397 kts 10°
2026-04-24 14:55 43.44897 2.94260 24106 ft 400 kts 10°
2026-04-24 14:56 43.47652 2.95001 24646 ft 403 kts 10°
2026-04-24 14:56 43.50406 2.95742 25177 ft 407 kts 10°
2026-04-24 14:56 43.53180 2.96489 25704 ft 410 kts 10°
2026-04-24 14:56 43.55987 2.97246 26227 ft 413 kts 10°
2026-04-24 14:57 43.58783 2.98001 26738 ft 415 kts 10°
2026-04-24 14:57 43.61652 2.98775 27239 ft 419 kts 10°
2026-04-24 14:57 43.64512 2.99548 27695 ft 422 kts 10°
2026-04-24 14:57 43.67404 3.00331 28182 ft 425 kts 10°
2026-04-24 14:58 43.70316 3.01121 28646 ft 428 kts 10°
2026-04-24 14:58 43.73228 3.01911 29208 ft 428 kts 10°
2026-04-24 14:58 43.76129 3.02669 29864 ft 426 kts
2026-04-24 14:58 43.79048 3.03259 30525 ft 423 kts
2026-04-24 14:59 43.81948 3.03723 31188 ft 420 kts
2026-04-24 14:59 43.84873 3.04143 31793 ft 418 kts
2026-04-24 14:59 43.87736 3.04546 32370 ft 417 kts
2026-04-24 14:59 43.90609 3.04958 32964 ft 414 kts
2026-04-24 15:00 43.93444 3.05377 33493 ft 413 kts
2026-04-24 15:00 43.96279 3.05807 34000 ft 412 kts
2026-04-24 15:00 43.99145 3.06252 34104 ft 417 kts
2026-04-24 15:01 44.04882 3.07159 34110 ft 412 kts
2026-04-24 15:01 44.10602 3.08074 34117 ft 415 kts
2026-04-24 15:02 44.16321 3.08995 34119 ft 414 kts
2026-04-24 15:02 44.22029 3.09916 34123 ft 413 kts
2026-04-24 15:03 44.27744 3.10841 34127 ft 415 kts
2026-04-24 15:03 44.33464 3.11770 34137 ft 416 kts
2026-04-24 15:04 44.39218 3.12707 34136 ft 417 kts
2026-04-24 15:04 44.44969 3.13645 34133 ft 418 kts
2026-04-24 15:05 44.50740 3.14586 34133 ft 418 kts
2026-04-24 15:05 44.56506 3.15529 34133 ft 419 kts
2026-04-24 15:06 44.62297 3.16359 34141 ft 418 kts
2026-04-24 15:06 44.68078 3.16547 34143 ft 418 kts 359°
2026-04-24 15:07 44.73879 3.16534 34144 ft 418 kts 358°
2026-04-24 15:07 44.79689 3.16539 34143 ft 419 kts 359°
2026-04-24 15:08 44.85486 3.16582 34143 ft 418 kts 359°
2026-04-24 15:08 44.91308 3.16646 34144 ft 418 kts 359°
2026-04-24 15:09 44.97116 3.16730 34141 ft 419 kts 360°
2026-04-24 15:09 45.02937 3.16992 34144 ft 419 kts
2026-04-24 15:10 45.08738 3.17338 34140 ft 419 kts
2026-04-24 15:10 45.14549 3.17623 34136 ft 419 kts 360°
2026-04-24 15:11 45.20384 3.17771 34133 ft 419 kts 359°
2026-04-24 15:11 45.26192 3.17896 34132 ft 419 kts 359°
2026-04-24 15:12 45.31995 3.18032 34124 ft 419 kts 359°
2026-04-24 15:12 45.40755 3.18248 34120 ft 420 kts 359°
2026-04-24 15:13 45.46590 3.18396 34111 ft 420 kts 359°
2026-04-24 15:13 45.52423 3.18547 34103 ft 422 kts 359°
2026-04-24 15:14 45.58269 3.18698 34098 ft 422 kts 359°
2026-04-24 15:14 45.64118 3.18848 34101 ft 423 kts 359°
2026-04-24 15:15 45.70018 3.18999 34097 ft 423 kts 359°
2026-04-24 15:15 45.75864 3.19228 34106 ft 423 kts
2026-04-24 15:16 45.81701 3.20521 34104 ft 429 kts 12°
2026-04-24 15:16 45.87415 3.23018 34096 ft 431 kts 16°
2026-04-24 15:17 45.93093 3.25791 34084 ft 434 kts 16°
2026-04-24 15:17 45.98817 3.28590 34083 ft 434 kts 15°
2026-04-24 15:18 46.04527 3.31343 34084 ft 435 kts 15°
2026-04-24 15:18 46.10225 3.34069 34088 ft 434 kts 15°
2026-04-24 15:19 46.15973 3.36809 34085 ft 437 kts 15°
2026-04-24 15:19 46.21735 3.39561 34088 ft 437 kts 16°
2026-04-24 15:20 46.27478 3.42307 34092 ft 438 kts 16°
2026-04-24 15:20 46.33263 3.45077 34091 ft 438 kts 16°
2026-04-24 15:21 46.39062 3.47860 34086 ft 439 kts 16°
2026-04-24 15:21 46.44848 3.50644 34089 ft 442 kts 16°
2026-04-24 15:22 46.50647 3.53439 34090 ft 442 kts 17°
2026-04-24 15:23 46.59424 3.57686 34090 ft 445 kts 17°
2026-04-24 15:23 46.68189 3.61923 34089 ft 444 kts 15°
2026-04-24 15:25 46.83247 3.65940 34099 ft 442 kts
2026-04-24 15:26 46.98552 3.69045 34111 ft 447 kts
2026-04-24 15:27 47.16985 3.72945 34121 ft 448 kts
2026-04-24 15:29 47.35325 3.76873 34126 ft 451 kts
2026-04-24 15:31 47.56969 3.81535 34126 ft 450 kts
2026-04-24 15:33 47.81585 3.86828 34150 ft 446 kts 10°
2026-04-24 15:34 47.96935 3.90151 34136 ft 447 kts 11°
2026-04-24 15:35 48.12340 3.93520 34131 ft 450 kts 10°
2026-04-24 15:36 48.18506 3.94868 34133 ft 449 kts 10°
2026-04-24 15:36 48.27760 3.96969 34140 ft 450 kts 12°
2026-04-24 15:37 48.33849 3.98845 34149 ft 448 kts 14°
2026-04-24 15:37 48.39890 4.00869 34146 ft 448 kts 14°
2026-04-24 15:38 48.45979 4.02887 34149 ft 447 kts 13°
2026-04-24 15:38 48.52051 4.04859 34140 ft 448 kts 12°
2026-04-24 15:39 48.58177 4.06198 34144 ft 448 kts
2026-04-24 15:39 48.64417 4.06343 34145 ft 450 kts 359°
2026-04-24 15:40 48.70662 4.06144 34154 ft 448 kts 358°
2026-04-24 15:40 48.76829 4.05951 34156 ft 447 kts 359°
2026-04-24 15:41 48.83058 4.05793 34157 ft 447 kts 359°
2026-04-24 15:41 48.89242 4.05607 34156 ft 445 kts 358°
2026-04-24 15:42 48.95408 4.05424 34157 ft 446 kts 358°
2026-04-24 15:42 49.01588 4.05250 34160 ft 443 kts 358°
2026-04-24 15:43 49.07722 4.05084 34162 ft 444 kts 358°
2026-04-24 15:43 49.13919 4.04915 34168 ft 444 kts 358°
2026-04-24 15:44 49.20058 4.04768 34173 ft 445 kts 358°
2026-04-24 15:44 49.26206 4.04641 34173 ft 442 kts 358°
2026-04-24 15:45 49.32367 4.04440 34179 ft 443 kts 355°
2026-04-24 15:45 49.38495 4.03601 34183 ft 443 kts 352°
2026-04-24 15:46 49.44591 4.02499 34183 ft 442 kts 352°
2026-04-24 15:46 49.50695 4.01400 34185 ft 442 kts 352°
2026-04-24 15:47 49.56699 4.00359 33863 ft 431 kts 352°
2026-04-24 15:47 49.59648 3.99860 33511 ft 425 kts 352°
2026-04-24 15:47 49.62590 3.99366 33037 ft 422 kts 352°
2026-04-24 15:48 49.65477 3.98884 32522 ft 421 kts 352°
2026-04-24 15:48 49.68392 3.98397 31996 ft 419 kts 352°
2026-04-24 15:48 49.71251 3.97920 31473 ft 418 kts 352°
2026-04-24 15:48 49.74137 3.97439 30945 ft 416 kts 352°
2026-04-24 15:49 49.77018 3.96958 30412 ft 415 kts 351°
2026-04-24 15:49 49.79872 3.96480 29873 ft 413 kts 351°
2026-04-24 15:49 49.82690 3.96006 29348 ft 411 kts 351°
2026-04-24 15:49 49.85506 3.95533 28824 ft 409 kts 351°
2026-04-24 15:50 49.88211 3.95079 28320 ft 407 kts 351°
2026-04-24 15:50 49.91030 3.94605 27796 ft 404 kts 352°
2026-04-24 15:50 49.93790 3.94140 27286 ft 401 kts 352°
2026-04-24 15:50 49.96574 3.93671 26767 ft 399 kts 351°
2026-04-24 15:51 49.99298 3.93212 26263 ft 397 kts 351°
2026-04-24 15:51 50.02029 3.92751 25755 ft 395 kts 351°
2026-04-24 15:51 50.04761 3.92289 25248 ft 392 kts 351°
2026-04-24 15:51 50.07463 3.91831 24747 ft 390 kts 351°
2026-04-24 15:52 50.10112 3.91382 24252 ft 387 kts 351°
2026-04-24 15:52 50.12802 3.90925 23752 ft 385 kts 351°
2026-04-24 15:52 50.15457 3.90475 23263 ft 382 kts 351°
2026-04-24 15:52 50.18078 3.90030 22781 ft 380 kts 352°
2026-04-24 15:53 50.20680 3.89587 22296 ft 377 kts 352°
2026-04-24 15:53 50.23263 3.89147 21822 ft 374 kts 352°
2026-04-24 15:53 50.25843 3.88707 21347 ft 372 kts 352°
2026-04-24 15:53 50.28397 3.88270 20873 ft 369 kts 352°
2026-04-24 15:54 50.30909 3.87840 20414 ft 366 kts 352°
2026-04-24 15:54 50.33420 3.87410 19945 ft 363 kts 352°
2026-04-24 15:54 50.35901 3.86985 19483 ft 359 kts 352°
2026-04-24 15:54 50.38385 3.86558 19032 ft 356 kts 352°
2026-04-24 15:55 50.40817 3.86141 18712 ft 348 kts 352°
2026-04-24 15:55 50.43178 3.85734 18307 ft 344 kts 352°
2026-04-24 15:55 50.45535 3.85328 17875 ft 341 kts 353°
2026-04-24 15:55 50.47893 3.84923 17437 ft 338 kts 353°
2026-04-24 15:56 50.50203 3.84524 17009 ft 335 kts 353°
2026-04-24 15:56 50.52506 3.84165 16545 ft 334 kts 356°
2026-04-24 15:56 50.54813 3.84322 16072 ft 332 kts 11°
2026-04-24 15:56 50.56917 3.85698 15666 ft 330 kts 35°
2026-04-24 15:57 50.58517 3.88274 15231 ft 327 kts 56°
2026-04-24 15:57 50.59549 3.91397 14812 ft 325 kts 66°
2026-04-24 15:57 50.60417 3.94627 14376 ft 323 kts 67°
2026-04-24 15:57 50.61265 3.97886 13954 ft 320 kts 67°
2026-04-24 15:58 50.62105 4.01120 13524 ft 317 kts 67°
2026-04-24 15:58 50.62933 4.04302 13112 ft 314 kts 67°
2026-04-24 15:58 50.63762 4.07480 12684 ft 312 kts 66°
2026-04-24 15:58 50.64573 4.10584 12266 ft 310 kts 66°
2026-04-24 15:59 50.65388 4.13702 11854 ft 307 kts 66°
2026-04-24 15:59 50.66191 4.16780 11447 ft 305 kts 66°
2026-04-24 15:59 50.66994 4.19864 10986 ft 302 kts 66°
2026-04-24 15:59 50.67730 4.22900 10536 ft 301 kts 72°
2026-04-24 16:00 50.68054 4.26154 10155 ft 299 kts 92°
2026-04-24 16:00 50.67486 4.29234 9914 ft 294 kts 118°
2026-04-24 16:00 50.66154 4.31627 9470 ft 296 kts 141°
2026-04-24 16:00 50.64404 4.33328 9103 ft 294 kts 150°
2026-04-24 16:01 50.62616 4.34826 8713 ft 292 kts 150°
2026-04-24 16:01 50.60835 4.36300 8329 ft 290 kts 150°
2026-04-24 16:01 50.59061 4.37774 7970 ft 287 kts 150°
2026-04-24 16:01 50.57291 4.39253 7601 ft 285 kts 150°
2026-04-24 16:02 50.55572 4.40693 7245 ft 283 kts 149°
2026-04-24 16:02 50.53805 4.42076 6863 ft 282 kts 155°
2026-04-24 16:02 50.51925 4.42796 6485 ft 283 kts 178°
2026-04-24 16:02 50.50026 4.42083 6122 ft 284 kts 208°
2026-04-24 16:03 50.48552 4.40105 5768 ft 282 kts 232°
2026-04-24 16:03 50.47578 4.37456 5426 ft 278 kts 249°
2026-04-24 16:03 50.47207 4.34499 4927 ft 279 kts 271°
2026-04-24 16:03 50.47339 4.31492 4494 ft 279 kts 278°
2026-04-24 16:04 50.47567 4.28493 4328 ft 269 kts 277°
2026-04-24 16:04 50.47457 4.25643 4260 ft 259 kts 254°
2026-04-24 16:04 50.46755 4.23145 4173 ft 249 kts 242°
2026-04-24 16:04 50.45774 4.20993 4066 ft 240 kts 222°
2026-04-24 16:05 50.42915 4.18990 3721 ft 224 kts 177°
2026-04-24 16:05 50.41420 4.19587 3393 ft 218 kts 151°
2026-04-24 16:06 50.39730 4.22745 3173 ft 179 kts 94°
2026-04-24 16:06 50.39726 4.24607 3032 ft 168 kts 79°
2026-04-24 16:06 50.40770 4.27541 2717 ft 146 kts 50°
2026-04-24 16:07 50.41230 4.28872 2600 ft 139 kts 65°
2026-04-24 16:07 50.41608 4.30251 2446 ft 137 kts 65°
2026-04-24 16:07 50.42384 4.32911 1958 ft 134 kts 61°
2026-04-24 16:08 50.42795 4.34207 1743 ft 134 kts 60°
2026-04-24 16:08 50.43574 4.36829 1605 ft 137 kts 65°
2026-04-24 16:09 50.44316 4.39533 1341 ft 133 kts 60°
2026-04-24 16:09 50.44706 4.40830 1148 ft 135 kts 66°
2026-04-24 16:09 50.45084 4.42191 950 ft 137 kts 62°
2026-04-24 16:09 50.45489 4.43560 738 ft 138 kts 66°
2026-04-24 16:10 50.46318 4.46416 588 ft 32 kts 64°
2026-04-24 16:11 50.46471 4.46874 576 ft 12 kts 15°
2026-04-24 16:11 50.46558 4.46856 577 ft 14 kts 333°
2026-04-24 16:11 50.46632 4.46877 578 ft 13 kts 58°
2026-04-24 16:12 50.46752 4.47304 566 ft 25 kts 53°
2026-04-24 16:12 50.46859 4.47333 564 ft 8 kts 27°
2026-04-24 16:12 50.46922 4.47357 563 ft 3 kts 336°
2026-04-24 16:13 50.46936 4.47348 563 ft 1 kts 336°
2026-04-24 16:13 50.46942 4.47344 563 ft 0 kts 336°